Flag for Brazil Weather past 2 weeks in Campinas, São Paulo, Brazil

Now
52 °F

Clear.


Feels Like: 48 °F
Forecast: 51 / 77 °F
Wind: 10 mph from Southeast

Location: Campinas Aeroporto

Current Time: Jul 28, 2015 at 6:07:10 AM

Latest Report: Jul 28, 2015 at 5:00 AM


Visibility: 10 mi

Pressure: 30.09 "Hg (27.71 "Hg at 686m altitude)

Humidity: 82%

Dew point: 46 °F

Location of CampinasLocation

Historic Weather in Campinas — Graph

°F

Campinas temperature yesterday

Maximum temperature yesterday: 73 °F (at 2:00 PM)
Minimum temperature yesterday: 54 °F (at 7:00 AM)
Average temperature yesterday: 63 °F

Past Weeks' High & Low Weather Summary

 TemperatureHumidityPressure
High86 °F (Jul 14, 3:00 PM)100% (Jul 17, 3:00 AM)30.30 "Hg (Jul 17, 3:00 AM)
Low48 °F (Jul 25, 6:00 PM)30% (Jul 19, 3:00 PM)29.98 "Hg (Jul 13, 3:00 PM)
Average67 °F69%30.16 "Hg
* Reported Jul 13 5:00 AM — Jul 28 5:00 AM, Campinas, Weather by CustomWeather, © 2015

Note: Actual official high and low records may vary slightly from our data, if they occured in-between our weather recording intervals... More about our weather records

Advertising

Campinas weather history for previous 24 hours

 ConditionsComfort  
Time TempWeatherWind HumidityBarometerVisibility
5:00 AM
Tue, Jul 28
52 °FClear.10 mph82%30.09 "Hg10 mi
4:00 AM54 °FClear.12 mph82%30.09 "Hg10 mi
3:00 AM55 °FClear.12 mph82%30.12 "Hg10 mi
2:00 AM55 °FClear.10 mph82%30.12 "Hg10 mi
1:00 AM55 °FClear.9 mph77%30.15 "Hg10 mi
12:00 AM57 °FClear.10 mph72%30.15 "Hg10 mi
11:00 PM
Mon, Jul 27
55 °FClear.8 mph72%30.12 "Hg10 mi
10:00 PM57 °FClear.7 mph72%30.12 "Hg10 mi
9:00 PM63 °FClear.6 mph59%30.12 "Hg10 mi
8:00 PM66 °FClear.5 mph49%30.12 "Hg10 mi
7:00 PM68 °FClear.6 mph40%30.12 "Hg10 mi
6:00 PM70 °FClear.5 mph40%30.09 "Hg10 mi
5:00 PM73 °FClear.5 mph33%30.07 "Hg10 mi
4:00 PM73 °FSunny.5 mph31%30.07 "Hg10 mi
3:00 PM73 °FSunny.8 mph36%30.07 "Hg10 mi
2:00 PM73 °FSunny.6 mph38%30.09 "Hg10 mi
1:00 PM72 °FSunny.6 mph44%30.12 "Hg10 mi
12:00 PM72 °FSunny.5 mph44%30.15 "Hg10 mi
11:00 AM68 °FSunny.6 mph46%30.15 "Hg10 mi
10:00 AM64 °FSunny.6 mph68%30.18 "Hg10 mi
9:00 AM61 °FClear.5 mph77%30.15 "Hg6 mi
8:00 AM55 °FClear.8 mph94%30.15 "Hg4 mi
7:00 AM54 °FClear.9 mph94%30.12 "Hg4 mi
6:00 AM55 °FSunny.10 mph88%30.12 "Hg10 mi
Weather by CustomWeather, © 2015

See weather overviewHow to use our weather pages